Weather History for Naples, FL

Change the Weather History Date:

Sunday, May 11, 2014

  Actual Average Record
Temperature  
Mean Temperature 82 °F 77 °F  
Max Temperature 91 °F 87 °F 92 °F (2002)
Min Temperature 73 °F 67 °F 60 °F (1982)
Degree Days  
Heating Degree Days 0 0  
Month to date heating degree days 0 0  
Since 1 July heating degree days 149 260  
Cooling Degree Days 17 12  
Month to date cooling degree days 159 127  
Year to date cooling degree days 893 747  
Growing Degree Days 30 (Base 50)    
Moisture  
Dew Point 70 °F    
Average Humidity 70    
Maximum Humidity 93    
Minimum Humidity 46    
Precipitation  
Precipitation 0.00 in 0.08 in 1.53 in (1977)
Month to date precipitation 0.10 0.89  
Year to date precipitation 6.96 9.58  
Snow  
Snow 0.00 in - - ()
Month to date snowfall 0.0  
Since 1 July snowfall 0.0  
Snow Depth 0.00 in    
Sea Level Pressure  
Sea Level Pressure 30.07 in    
Wind  
Wind Speed 9 mph (SE)    
Max Wind Speed 16 mph    
Max Gust Speed 20 mph    
Visibility 10 miles    
Events      
T = Trace of Precipitation, MM = Missing Value Source: NWS Daily Summary

Daily Weather History Graph

Daily Weather History Graph

Search for Another Location

Airport:

Trip Planner

Search our weather history database for the weather conditions in past years. The results will help you decide how hot, cold, wet, or windy it might be!

Date:

Astronomy

May. 11, 2014 Rise Set
Actual Time 6:42 AM EDT 8:04 PM EDT
Civil Twilight 6:18 AM EDT 8:29 PM EDT
Nautical Twilight 5:48 AM EDT 8:58 PM EDT
Astronomical Twilight 5:18 AM EDT 9:29 PM EDT
Moon 5:15 PM EDT (5/11) 4:27 AM EDT (5/11)
Length of Visible Light 14h 10m
Length of Day
13h 21m
Waxing Gibbous, 89% of the Moon is Illuminated
May 11
Waxing Gibbous
May 14
Full
May 21
Last Quarter
May 28
New
Jun 5
First Quarter

Hourly Weather History & Observations

Time (EDT) Temp. Heat Index Dew Point Humidity Pressure Visibility Wind Dir Wind Speed Gust Speed Precip Events Conditions
12:53 AM 75.0 °F - 70.0 °F 84% 30.08 in 10.0 mi East 8.1 mph - N/A   Clear
2:53 AM 73.0 °F - 70.0 °F 90% 30.05 in 9.0 mi ESE 10.4 mph - N/A   Clear
3:53 AM 75.0 °F - 71.1 °F 87% 30.04 in 10.0 mi East 10.4 mph - N/A   Clear
4:53 AM 75.0 °F - 71.1 °F 87% 30.05 in 10.0 mi ESE 9.2 mph - N/A   Partly Cloudy
5:53 AM 75.0 °F - 71.1 °F 87% 30.06 in 9.0 mi East 8.1 mph - N/A   Scattered Clouds
6:53 AM 73.9 °F - 71.1 °F 91% 30.08 in 8.0 mi East 8.1 mph - N/A   Clear
7:53 AM 75.0 °F - 72.0 °F 90% 30.10 in 8.0 mi East 6.9 mph - N/A   Clear
8:53 AM 77.0 °F - 72.0 °F 84% 30.11 in 9.0 mi ESE 5.8 mph - N/A   Clear
9:53 AM 80.1 °F 83.8 °F 72.0 °F 76% 30.12 in 10.0 mi ESE 13.8 mph - N/A   Clear
10:53 AM 82.9 °F 87.5 °F 71.1 °F 67% 30.12 in 10.0 mi ESE 11.5 mph - N/A   Clear
11:53 AM 86.0 °F 89.4 °F 68.0 °F 55% 30.12 in 10.0 mi SE 8.1 mph - N/A   Scattered Clouds
12:53 PM 88.0 °F 91.4 °F 68.0 °F 51% 30.10 in 10.0 mi SSE 8.1 mph - N/A   Scattered Clouds
1:53 PM 88.0 °F 89.6 °F 64.9 °F 46% 30.09 in 10.0 mi South 4.6 mph - N/A   Scattered Clouds
2:53 PM 88.0 °F 94.7 °F 72.0 °F 59% 30.06 in 10.0 mi West 3.5 mph - N/A   Scattered Clouds
3:53 PM 87.1 °F 93.6 °F 72.0 °F 61% 30.04 in 10.0 mi West 10.4 mph - N/A   Scattered Clouds
5:53 PM 84.9 °F 90.7 °F 72.0 °F 65% 30.02 in 10.0 mi SW 11.5 mph - N/A   Partly Cloudy
6:53 PM 84.0 °F 89.6 °F 72.0 °F 67% 30.02 in 10.0 mi WSW 10.4 mph - N/A   Partly Cloudy
7:53 PM 82.0 °F 86.7 °F 72.0 °F 71% 30.03 in 10.0 mi WSW 3.5 mph - N/A   Partly Cloudy
8:53 PM 82.0 °F 86.7 °F 72.0 °F 71% 30.06 in 10.0 mi Calm Calm - N/A   Mostly Cloudy
9:53 PM 80.1 °F 81.7 °F 64.0 °F 58% 30.08 in 10.0 mi East 15.0 mph 19.6 mph N/A   Clear
10:53 PM 78.1 °F - 62.1 °F 58% 30.09 in 10.0 mi East 10.4 mph - N/A   Clear
11:53 PM 75.9 °F - 63.0 °F 64% 30.10 in 10.0 mi East 9.2 mph - N/A   Clear